Weather observations for the past three days for
Anchorage, Elmendorf Air Force Base
Imperial (Metric)
Date Time (akdt) Wind (mph) Vis. (mi.) Weather Sky Cond. Temperature (ºF) Relative Humidity Wind Chill (°F) Heat Index (°F) Pressure Precipitation (in)
Air Dwpt 6 hour altimeter (in) sea level (mb) 1 hr 3 hr 6 hr
Max. Min.
12 01:55 Calm 10.00 Mostly Cloudy FEW050 BKN070 BKN110 55.8 43 62% 29.96 1014.1
12 00:55 SW 5 10.00 Mostly Cloudy FEW050 SCT070 BKN130 57.7 41.7 55% 29.96 1014.1
11 23:55 SW 7 10.00 Mostly Cloudy BKN075 BKN130 59.5 41.4 51% 29.96 1014.1
11 22:55 SW 9 10.00 Mostly Cloudy FEW050 SCT075 BKN130 60.4 42.8 52% 29.96 1014.3
11 21:55 SW 6 10.00 Mostly Cloudy FEW050 SCT075 BKN120 62.4 43 66.6 60.4 49% 29.94 1013.6
11 20:55 SW 10 10.00 Mostly Cloudy FEW050 SCT080 BKN110 61.5 42.3 49% 29.94 1013.4
11 19:55 SW 15 10.00 Mostly Cloudy FEW050 SCT080 BKN130 64 42.3 45% 29.94 1013.3
11 18:55 SW 10 G 17 10.00 Mostly Cloudy FEW047 SCT080 BKN130 64.2 41.9 44% 29.93 1013.9
11 17:55 SW 12 10.00 Mostly Cloudy SCT050 BKN075 BKN120 66.4 43.9 44% 29.93 1013.9
11 16:55 SW 9 10.00 Mostly Cloudy SCT055 BKN080 BKN120 65.1 44.4 47% 29.93 1013.9
11 15:55 W 5 10.00 Mostly Cloudy SCT050 BKN070 BKN120 66.2 44.2 68.2 63.3 45% 29.92 1013.9
11 14:55 W 9 10.00 Mostly Cloudy SCT050 BKN075 BKN100 65.3 46.2 50% 29.92 1013.9
11 13:55 NW 7 10.00 Light Rain FEW055 SCT070 BKN100 66.4 44.4 45% 29.92 0.0
11 12:55 NW 5 10.00 Light Rain FEW044 BKN050 BKN070 63.7 48.2 57% 29.92 1012.9
11 11:55 NW 7 10.00 Mostly Cloudy FEW040 BKN120 64 47.5 55% 29.92 0.0
11 10:55 NW 5 10.00 Mostly Cloudy SCT070 BKN120 62.6 46.4 56% 29.92 1012.7
11 09:55 W 8 10.00 Mostly Cloudy SCT055 BKN120 60.6 47.5 61.3 55.2 62% 29.92 1012.7
11 07:55 N 5 10.00 Partly Cloudy SCT070 SCT120 61.2 45.9 57% 29.9 1012.1
11 06:55 Calm 10.00 Mostly Cloudy FEW065 BKN120 58.8 46.6 64% 29.89 1011.7
11 05:55 Calm 10.00 Mostly Cloudy SCT070 BKN110 55.4 46.6 72% 29.87 1011.1
11 04:55 N 6 10.00 Mostly Cloudy FEW070 BKN110 56.7 46.2 68% 29.86 1010.7
11 03:55 N 7 10.00 Mostly Cloudy BKN070 56.8 46.4 64.4 56.7 68% 29.85 1010.4
11 02:55 N 3 10.00 Mostly Cloudy SCT075 BKN110 57.4 43.5 60% 29.84 1010.0
11 01:55 SE 5 10.00 Mostly Cloudy BKN100 59.2 43 55% 29.83 1009.7
11 00:55 SE 9 10.00 Mostly Cloudy BKN085 61 40.6 47% 29.82 1009.4
10 23:55 SE 6 10.00 Mostly Cloudy FEW080 BKN110 61.9 40.8 46% 29.8 1008.7
10 22:55 S 12 10.00 Mostly Cloudy SCT050 BKN080 BKN120 63.1 42.6 47% 29.78 1008.0
10 21:55 S 6 10.00 Mostly Cloudy SCT050 BKN070 BKN110 64.2 44.6 68.2 64 49% 29.77 1007.7
10 19:55 SW 10 10.00 Mostly Cloudy SCT050 BKN075 BKN100 67.1 43.9 43% 29.74 1006.6
10 18:55 E 6 10.00 Mostly Cloudy SCT050 BKN065 BKN095 67.3 46.4 47% 29.73 1006.3
10 17:55 N 6 10.00 Mostly Cloudy SCT045 BKN055 BKN080 67.1 47.8 50% 29.73 1006.3
10 16:55 NE 8 10.00 Showers in Vicinity SCT045 BKN065 BKN080 65.5 49.8 57% 29.72 1006.1
10 15:55 SW 7 10.00 Mostly Cloudy SCT050 BKN075 67.1 48.4 68.4 65.8 51% 29.71 1005.8
10 14:55 W 9 10.00 Mostly Cloudy BKN055 BKN070 66.7 48 51% 29.71 1005.8
10 13:55 W 9 10.00 Mostly Cloudy BKN047 BKN060 62.8 47.8 58% 29.71 1005.8
10 12:55 W 6 10.00 Mostly Cloudy SCT035 BKN048 63.7 47.1 55% 29.71 1005.5
10 11:55 Calm 10.00 Mostly Cloudy BKN036 BKN055 64.8 46.8 52% 29.7 1005.3
10 10:55 Vrbl 6 10.00 Mostly Cloudy SCT033 BKN050 62.8 47.3 57% 29.7 1005.3
10 09:55 N 10 10.00 Partly Cloudy FEW025 SCT055 61.9 47.8 62.6 53.2 60% 29.7 1005.3
10 08:55 N 7 10.00 Partly Cloudy FEW025 SCT060 60.4 48.2 64% 29.7 1005.3
10 07:55 Calm 10.00 Mostly Cloudy FEW030 SCT040 BKN050 59 52.2 78% 29.7 1005.3
10 06:55 Calm 10.00 Showers in Vicinity FEW036 BKN075 BKN130 57.7 52 81% 29.7 1005.3
10 05:55 Calm 10.00 Light Showers Rain SCT038 BKN050 54.9 50.2 84% 29.7 1005.3
10 04:55 Calm 10.00 Showers in Vicinity BKN070 BKN130 55 48.9 80% 29.7 1005.3
10 03:55 Calm 10.00 Mostly Cloudy BKN060 BKN130 55 48.6 61.9 54.7 79% 29.7 1005.3
10 02:55 Calm 10.00 Mostly Cloudy BKN065 BKN140 55.4 48.7 78% 29.71 1005.7
10 01:55 E 3 10.00 Mostly Cloudy BKN055 57 48 72% 29.71 1005.7
10 00:55 NW 5 10.00 Mostly Cloudy FEW045 BKN060 57.4 47.7 70% 29.71 1005.7
09 23:55 NW 7 10.00 Mostly Cloudy FEW050 BKN070 57.9 48.6 71% 29.7 1005.5
09 22:55 N 5 10.00 Mostly Cloudy SCT065 BKN070 60.4 48.2 64% 29.71 1005.6
09 21:55 Calm 10.00 Mostly Cloudy SCT047 BKN060 61.9 47.8 65.1 60.4 60% 29.7 1005.8
09 20:55 NW 6 10.00 Mostly Cloudy SCT048 BKN070 BKN100 64.4 45.3 50% 29.7 1005.8
09 19:55 N 7 10.00 Mostly Cloudy FEW030 SCT070 BKN100 64 45 50% 29.7 1005.8
09 18:55 N 7 10.00 Mostly Cloudy FEW030 SCT070 BKN120 63.5 47.1 55% 29.71 1005.8
09 17:55 N 7 10.00 Mostly Cloudy SCT065 BKN100 63.9 47.3 55% 29.72 1006.0
09 16:55 N 6 10.00 Mostly Cloudy FEW030 BKN095 61.2 48.9 64% 29.73 1006.3
09 15:55 N 6 10.00 Mostly Cloudy FEW025 BKN080 60.4 48.6 60.6 58.8 65% 29.75 1007.0
09 14:55 N 5 10.00 Mostly Cloudy FEW025 BKN095 59.7 49.1 68% 29.75 1007.0
09 13:55 N 3 10.00 Overcast FEW012 FEW025 OVC080 59.4 49.1 69% 29.76 1007.4
09 12:55 N 5 10.00 Mostly Cloudy FEW012 SCT025 BKN090 57.4 49.1 74% 29.76 1007.4
09 11:55 NW 3 10.00 Mostly Cloudy SCT025 BKN085 57 49.1 75% 29.77 1007.7
09 10:58 N 5 10.00 Mostly Cloudy FEW013 SCT030 BKN075 57 49.1 75% 29.77 1007.7
09 09:55 NW 6 10.00 Light Rain FEW050 BKN070 56.5 47.8 56.5 52.7 73% 29.77 1007.7
09 08:56 Calm 10.00 Mostly Cloudy FEW015 BKN070 55.4 48.2 77% 29.76 0.0
09 08:55 Calm 10.00 Overcast OVC070 55.9 48.2 75% 29.76 1007.4
09 07:55 Calm 10.00 Mostly Cloudy FEW020 BKN090 55.9 47.8 74% 29.77 1007.7
09 06:55 Calm 10.00 Mostly Cloudy FEW030 BKN090 54 48.2 81% 29.77 1007.7
09 05:55 Calm 10.00 Mostly Cloudy FEW025 BKN070 52.7 48 84% 29.79 1008.4
09 04:55 Calm 10.00 Mostly Cloudy FEW025 BKN075 BKN090 53.2 47.5 81% 29.8 1008.7
09 03:55 Calm 10.00 Mostly Cloudy FEW030 BKN075 BKN090 54.3 46.2 57.7 53.2 74% 29.81 1009.1
Date Time (akdt) Wind (mph) Vis. (mi.) Weather Sky Cond. Air Dwpt Max. Min. Relative Humidity Wind Chill (°F) Heat Index (°F) altimeter (in) sea level (mb) 1 hr 3 hr 6 hr
6 hour
Temperature (ºF) Pressure Precipitation (in)